This is the latest recevied weather packets stored in our database for station/object KO6HRZ. If no packets are shown the sender has not sent any weather packets the latest 1 day(s).
| Time | Temp. | Humidity | Pressure | Rain* | Wind** | Luminosity | Snow |
|---|---|---|---|---|---|---|---|
| 1778085831 | 17.78° C | 76% | 1021.4 hPa | 0 mm | - | 270 W/m² | - |
| 1778084629 | 17.22° C | 77% | 1021.1 hPa | 0 mm | - | 232 W/m² | - |
| 1778081696 | 16.11° C | 81% | 1021.2 hPa | 0 mm | - | 152 W/m² | - |
| 1778078690 | 15° C | 85% | 1020.9 hPa | 0 mm | - | 92 W/m² | - |
| 1778076271 | 13.89° C | 87% | 1020.9 hPa | 0 mm | - | 48 W/m² | - |
| 1778075671 | 13.89° C | 88% | 1020.6 hPa | 0 mm | - | 38 W/m² | - |
| 1778075069 | 13.89° C | 88% | 1020.4 hPa | 0 mm | - | 27 W/m² | - |
| 1778074469 | 13.89° C | 88% | 1020.4 hPa | 0 mm | - | 18 W/m² | - |
| 1778073268 | 13.89° C | 88% | 1020.3 hPa | 0 mm | - | 6 W/m² | - |
| 1778070854 | 13.89° C | 88% | 1020.1 hPa | 0 mm | - | 0 W/m² | - |
| 1778070254 | 13.89° C | 87% | 1020.2 hPa | 0 mm | - | 0 W/m² | - |
| 1778069649 | 13.89° C | 87% | 1020.2 hPa | 0 mm | - | 0 W/m² | - |
| 1778067839 | 13.89° C | 87% | 1020 hPa | 0 mm | - | 0 W/m² | - |
| 1778066030 | 13.89° C | 86% | 1019.6 hPa | 0 mm | - | 0 W/m² | - |
| 1778065430 | 13.89° C | 86% | 1019.5 hPa | 0 mm | - | 0 W/m² | - |
| 1778064829 | 13.89° C | 86% | 1019.5 hPa | 0 mm | - | 0 W/m² | - |
| 1778064224 | 13.89° C | 86% | 1019.5 hPa | 0 mm | - | 0 W/m² | - |
| 1778063014 | 13.89° C | 85% | 1019.2 hPa | 0 mm | - | 0 W/m² | - |
| 1778062413 | 13.89° C | 85% | 1019.2 hPa | 0 mm | - | 0 W/m² | - |
| 1778059401 | 13.89° C | 84% | 1019.3 hPa | 0 mm | - | 0 W/m² | - |
| 1778058196 | 14.44° C | 84% | 1019.3 hPa | 0 mm | - | 0 W/m² | - |
| 1778057595 | 14.44° C | 84% | 1019.3 hPa | 0 mm | - | 0 W/m² | - |
| 1778056994 | 14.44° C | 83% | 1019.3 hPa | 0 mm | - | 0 W/m² | - |
| 1778056388 | 14.44° C | 84% | 1019.3 hPa | 0 mm | - | 0 W/m² | - |
| 1778053377 | 14.44° C | 84% | 1019.2 hPa | 0 mm | - | 0 W/m² | - |
* Rain latest hour (hover to see other rain measurements)
** Current wind speed in m/s (hover to see current wind gust speed)